カタログに戻る

STARLINK-37583

運用中通信VLEO
NORAD 69466·PAYLOAD·🇺🇸 United States

打ち上げ Jun 8, 2026 から Cape Canaveral Space Force Station

Loading…

次のパス (今後24時間)

TLE

最新Source: CelesTrak SupGP

元期: Sep 15, 2026, 04:05 UTC

1 69466C 26127Z   26258.17062500 -.00031564  00000+0 -93278-3 0  2583
2 69466  53.1586 190.4310 0001241  81.4430  18.6624 15.34399587    19

AllMySatでSTARLINK-37583をリアルタイム追跡

Download on the App Store